User: anonymous   Login
Location: Nebula Knoll Observatory
(43.6666°N, 71.0000°W)
Time: 23:33:47
(UTC-05:00)
Language:

Cosmos 1782 - Orbit

View from above orbital plane
View from above orbital plane
View from above satellite
View from above satellite

Ground track
Ground track

The orbit data is extracted from the following two-line orbital elements,

1 16986U 86074A   17054.93363071 +.00000203 +00000-0 +11731-4 0  9996
2 16986 082.5047 231.3823 0011198 018.9588 341.2054 15.06445242632620
Epoch (UTC): 23 February 2017 22:24:25
Eccentricity: 0.0011198
inclination: 82.5047°
perigee height: 539 km
apogee height: 555 km
right ascension of ascending node: 231.3823°
argument of perigee: 18.9588°
revolutions per day: 15.06445242
mean anomaly at epoch: 341.2054°
orbit number at epoch: 63262

The dashed part of the orbit path shows where the satellite is in the earth's shadow,  

DLR